[Date Prev][Date Next][Thread Prev][Thread Next] - [Date Index][Thread Index][Author Index]
2 Line ISS Keps 2-9
- Subject: [sarex] 2 Line ISS Keps 2-9
- From: "Dave Larsen PhD" <doc@xxxxxxxxxxx>
- Date: Tue, 8 Feb 2005 17:45:28 -0800
ISS
1 25544U 98067A 05038.94639046 +.00010549 +00000-0 +88212-4 0 07652
2 25544 051.6446 201.7984 0009663 076.9298 008.6897 15.70621523355366
----
Via the sarex mailing list at AMSAT.ORG courtesy of AMSAT-NA.
To unsubscribe, send "unsubscribe sarex" to Majordomo@amsat.org
AMSAT Home